星链-30395 (STARLINK-30395 )

导读

STARLINK-30395是美国太空探索技术公司SpaceX星链互联网卫星星座的成员,于2023年9月9日发射升空,属于星链星座批次部署任务的一部分。它运行在近地轨道,旨在为全球提供高速低延迟的卫星互联网接入服务,拓展星链网络的覆盖范围与服务能力,支撑全球多地的互联网连接需求。

基本信息
目录编号:
57812
目录名称:
STARLINK-30395
国际标识:
2023-138E
轨道中心:
EARTH
卫星名称:
星链-30395
卫星全名:
星链-30395 (STARLINK-30395 )
卫星状态:
在轨 (已飞行1013 天)
发射日期:
2023-09-09 UTC
国别 :
美国 (US)
星等 :
--
轨道信息
数据来源 国际轨道数据
星历时间: 2026-06-17T05:59:42+0800
1天前
查看轨道信息
半长轴: 6861.186km
偏心率: 0.0001001
轨道倾角: 43.005°
近地点辐角 268.098°
升交点赤经 33.813°
平近点角 91.976°
近地点: 482.362km
远地点: 483.736km
周期: 94.267分钟
每日圈数: 15.275801
详细信息
固有亮度:
5
最大亮度:
0.3
卫星平台:
Starlink v2.0 mini
覆盖范围:
全球
运营商:
太空探索技术公司
运营商所在国:
美国
制造商(研发单位):
太空探索技术公司
制造商所在国:
美国
使用方式:
暂无
卫星简介
星链(Starlink)计划是由太空探索技术公司(SpaceX)提出的一个巨型低轨卫星互联网星座项目,计划在2019年至2024年间在太空搭建由约1.2万颗卫星组成的“星链”网络,其中1584颗将部署在地球上空550千米处的近地轨道,并从2020年开始工作。该卫星仍在工作。
2D轨道图
3D轨道图
轨道高度分析图
轨道倾角分析图
轨道综合分析图
查看轨道综合分析图